This demonstration page uses our WeatherBlox Daily Observations layout. Learn more.

Left ArrowRight Arrow

Hourly Observations for January 23, 2015

Temp ( °F °C ) Dew Point ( °F °C ) Humidity (%) Winds ( mph kmh ) Pressure ( in mb ) Visibility ( mi km ) Precip ( " mm )
12:53 am 00:53 Cloudy with Light Rain 43 6.1 40 4.4 89 89 NNE 5 7 30.23 1024 5 8 0.07 1.78
1:53 am 01:53 Cloudy with Light Rain 44 6.7 40 4.4 85 85 NE 5 7 30.20 1023 10 16 0.04 1.02
2:53 am 02:53 Cloudy with Light Rain 43 6.1 40 4.4 89 89 ENE 3 6 30.19 1022 10 16 0.01 0.25
3:53 am 03:53 Cloudy with Rain 43 6.1 41 5 93 93 Calm 30.19 1022 5 8 0.05 1.27
4:53 am 04:53 Cloudy with Rain 44 6.7 41 5 89 89 ENE 7 11 30.15 1021 4 6 0.10 2.54
5:53 am 05:53 Cloudy with Rain 44 6.7 42 5.6 93 93 NE 8 13 30.14 1021 3 5 0.16 4.06
6:53 am 06:53 Cloudy with Light Rain 45 7.2 43 6.1 93 93 E 10 17 30.12 1020 5 8 0.18 4.57
7:53 am 07:53 Cloudy with Light Rain 46 7.8 42 5.6 86 86 E 14 22 30.09 1019 8 13 0.06 1.52
8:53 am 08:53 Cloudy 46 7.8 42 5.6 86 86 E 13 20 30.04 1017 10 16 0.01 0.25
9:53 am 09:53 Cloudy with Light Rain 46 7.8 43 6.1 89 89 ENE 16 26 30.02 1017 4 6 0.01 0.25
10:06 am 10:06 Cloudy with Light Rain 46 8 43 6 87 87 ENE 9 15 30.06 1018 4 6 0.00 0.00
10:53 am 10:53 Cloudy with Light Rain 45 7.2 42 5.6 90 90 ENE 16 26 30.02 1017 5 8 0.02 0.51
11:15 am 11:15 Cloudy with Light Rain 45 7.2 41 5 86 86 ENE 16 26 30.06 1018 3 4 0.01 0.25
11:30 am 11:30 Cloudy with Rain 45 7 41 5 87 87 ENE 17 28 30.03 1017 3 5 0.00 0.00
11:53 am 11:53 Cloudy with Light Rain 44 6.7 40 4.4 85 85 ENE 13 20 30.00 1016 3 4 0.07 1.78
12:53 pm 12:53 Cloudy with Light Rain 43 6.1 40 4.4 89 89 E 14 22 29.98 1015 2 3 0.02 0.51
1:53 pm 13:53 Cloudy with Light Rain 43 6.1 39 3.9 86 86 E 12 19 29.91 1013 2 3 0.02 0.51
2:34 pm 14:34 Cloudy 43 6 39 4 87 87 E 13 20 29.94 1014 7 11 0.00 0.00
2:53 pm 14:53 Cloudy 43 6.1 39 3.9 86 86 ENE 12 19 29.90 1013 7 11 0.00 0.03
3:53 pm 15:53 Cloudy with Mist and Fog 42 5.6 40 4.4 92 92 E 13 20 29.87 1012 2 3 0.00 0.03
4:53 pm 16:53 Cloudy with Mist and Fog 42 5.6 40 4.4 92 92 ENE 7 11 29.87 1011 2 3 0.01 0.25
5:08 pm 17:08 Cloudy with Mist and Fog 43 6 39 4 87 87 ENE 6 9 29.88 1012 2 3 0.00 0.00
5:15 pm 17:15 Cloudy with Mist and Fog 42 5.6 40 4.4 92 92 ENE 7 11 29.88 1012 2 3 0.00 0.00
5:53 pm 17:53 Cloudy with Mist and Fog 42 5.6 40 4.4 92 92 ENE 7 11 29.85 1011 2 2 0.00 0.00
6:53 pm 18:53 Cloudy with Mist and Fog 41 5 39 3.9 93 93 NE 8 13 29.85 1011 4 6 0.00 0.00
7:53 pm 19:53 Cloudy with Light Rain 41 5 39 3.9 93 93 NE 5 7 29.83 1010 3 5 0.00 0.03
8:53 pm 20:53 Cloudy with Light Rain 41 5 39 3.9 93 93 NE 6 9 29.81 1010 4 6 0.00 0.03
9:22 pm 21:22 Cloudy with Rain 41 5 39 4 93 93 NNE 3 6 29.85 1011 3 5 0.00 0.00
9:46 pm 21:46 Cloudy with Rain 41 5 39 4 93 93 N 3 6 29.85 1011 3 4 0.00 0.00
9:53 pm 21:53 Cloudy with Light Rain 41 5 39 3.9 93 93 NNE 5 7 29.81 1010 4 6 0.06 1.52
10:53 pm 22:53 Cloudy with Light Rain 41 5 39 3.9 93 93 N 6 9 29.80 1009 4 6 0.04 1.02
11:53 pm 23:53 Cloudy 41 5 39 3.9 93 93 Calm 29.78 1009 10 16 0.01 0.25

Powered by AerisWeather